Content
SEND FEEDBACK

Daily
Averages
Monthly
Summary
United States of America

BEN WHEELER, TEXAS


Home > North America > United States > Texas
Elevation: 490 feet     Latitude: 32 23N     Longitude: 095 38W

WEATHER
 
SELECT A DAY
Number of Records: 188,675;   Date Range: 1/1/95 - 7/20/14
 
SHARE

PRINT THIS DATA

[ ← Previous Day ]
WEATHER ALMANAC - JANUARY 31, 2013
[ Next Day → ]
[ °C ]   °F
Weather ElementAverageHighLow
Temperature48 °F64.9 °F (3:53 pm)30.9 °F (5:53 am)
Dewpoint26.3 °F30 °F (8:53 pm)21 °F (1:53 pm)
Humidity49.1 %85 % (5:53 am)19 % (1:53 pm)
Barometer30.21 in30.30 in (11:53 pm)30.15 in (4:53 pm)
Wind Speed8.5 mph16.1 mph (1:53 pm)
Wind Gust21.9 mph (1:53 pm)
Weather ElementAverage
Visibility10 mi
Wind DirectionSSW (198.7 °)

Weather ElementTotal
Precipitation---
Heating Degree Days17.1 (Base 65)
Averaged from 23 records on January 31, 2013
WEATHER CONDITIONS BREAKOUT
WIND DIRECTION BREAKOUT
WEATHER BY HOUR - JANUARY 31, 2013
[ °C ]   °F
Local TimeTemperatureDewpointHumidityBarometerVisibilityWind DirectionWind SpeedGust SpeedPrecipitationEventsConditions
1:53 AM33.1 °F28.0 °F82 %30.18 in10.0 miSouth (180°)5.8 mphClear
2:53 AM34.0 °F28.9 °F82 %30.18 in10.0 miSSW (200°)6.9 mphClear
3:53 AM35.1 °F28.9 °F78 %30.18 in10.0 miSSW (200°)5.8 mphClear
4:53 AM34.0 °F28.0 °F79 %30.18 in10.0 miSSW (200°)5.8 mphClear
5:53 AM30.9 °F27.0 °F85 %30.18 in10.0 miSSW (210°)3.5 mphClear
6:53 AM32.0 °F27.0 °F82 %30.19 in10.0 miSouth (190°)8.1 mphClear
7:53 AM34.0 °F28.0 °F79 %30.22 in10.0 miSouth (180°)6.9 mphClear
8:53 AM42.1 °F28.0 °F58 %30.24 in10.0 miSSW (200°)5.8 mphClear
9:53 AM48.9 °F26.1 °F41 %30.25 in10.0 miSSW (210°)11.5 mphClear
10:53 AM55.0 °F21.9 °F28 %30.25 in10.0 miSW (230°)12.7 mphClear
11:53 AM57.9 °F23.0 °F26 %30.24 in10.0 miSW (230°)10.4 mphClear
12:53 PM61.0 °F25.0 °F25 %30.22 in10.0 miSSW (210°)11.5 mphClear
1:53 PM64.0 °F21.0 °F19 %30.18 in10.0 miSW (220°)16.1 mph21.9 mphClear
2:53 PM64.0 °F23.0 °F21 %30.17 in10.0 miSSW (210°)13.8 mphClear
3:53 PM64.9 °F21.0 °F19 %30.17 in10.0 miSSW (210°)11.5 mphClear
4:53 PM63.0 °F23.0 °F22 %30.15 in10.0 miSSW (210°)15.0 mphClear
5:53 PM59.0 °F26.1 °F28 %30.17 in10.0 miSSW (200°)8.1 mphClear
6:53 PM51.1 °F28.0 °F41 %30.20 in10.0 miSouth (170°)6.9 mphClear
7:53 PM50.0 °F28.0 °F43 %30.22 in10.0 miSouth (180°)5.8 mphClear
8:53 PM46.9 °F30.0 °F52 %30.24 in10.0 miSouth (190°)8.1 mphClear
9:53 PM46.9 °F28.9 °F50 %30.24 in10.0 miSouth (180°)6.9 mphClear
10:53 PM48.9 °F27.0 °F43 %30.26 in10.0 miCalmClear
11:53 PM48.0 °F28.0 °F46 %30.30 in10.0 miNorth (360°)8.1 mphClear
Hourly data recorded from KTYR, located miles away from Ben Wheeler, Texas







STORIES FROM OUR PARTNERS